Home > Weather > Port Said > Past weeks

Flag for Egypt Past Weather in Port Said, Egypt — Yesterday and Last 2 Weeks

Now
84 °F

Sunny.


Feels Like: 92 °F
Forecast: 79 / 84 °F
Wind: 14 mph from North

Location: Port Said Airport

Current Time: Jun 26, 2016 at 7:19:56 PM

Latest Report: Jun 26, 2016 at 6:00 PM


Visibility: 10 mi

Pressure: 29.83 "Hg

Humidity: 74%

Dew Point: 75 °F

Location of Port SaidLocation

Past Weather in Port Said — Graph

°F

Port Said Temperature Yesterday

Maximum temperature yesterday: 86 °F (at 12:00 PM)
Minimum temperature yesterday: 77 °F (at 6:00 AM)
Average temperature yesterday: 82 °F

High & Low Weather Summary for the Past Weeks

 TemperatureHumidityPressure
High90 °F (Jun 20, 3:00 PM)94% (Jun 23, 5:00 AM)30.01 "Hg (Jun 23, 5:00 AM)
Low72 °F (Jun 12, 3:00 AM)39% (Jun 12, 2:00 PM)29.71 "Hg (Jun 15, 2:00 AM)
Average80 °F76%29.81 "Hg
* Reported Jun 11 6:00 PM — Jun 26 6:00 PM, Port Said, Weather by CustomWeather, © 2016

Note: Actual official high and low records may vary slightly from our data, if they occured in-between our weather recording intervals... More about our weather records

Advertising

Port Said Weather History for the Previous 24 Hours

Scroll right to see more
 ConditionsComfort  
Time TempWeatherWind HumidityBarometerVisibility
6:00 PM
Sun, Jun 26
84 °FSunny.14 mph74%29.83 "Hg10 mi
5:00 PM84 °FSunny.16 mph74%29.83 "Hg10 mi
4:00 PM86 °FSunny.14 mph70%29.83 "Hg10 mi
3:00 PM88 °FSunny.12 mph66%29.83 "Hg10 mi
2:00 PM88 °FSunny.10 mph62%29.83 "Hg10 mi
1:00 PM86 °FSunny.8 mph70%29.86 "Hg10 mi
12:00 PM86 °FSunny.5 mph70%29.86 "Hg10 mi
11:00 AM84 °FSunny.7 mph79%29.86 "Hg10 mi
10:00 AM82 °FPassing clouds.5 mph79%29.86 "HgN/A
9:00 AM82 °FPassing clouds.10 mph79%29.86 "HgN/A
8:00 AM81 °FSunny.5 mph84%29.86 "Hg10 mi
7:00 AM79 °FSunny.9 mph89%29.83 "Hg10 mi
6:00 AM79 °FSunny.7 mph84%29.80 "Hg10 mi
5:00 AM75 °FSunny.8 mph89%29.80 "Hg10 mi
4:00 AM77 °FClear.9 mph89%29.80 "Hg10 mi
3:00 AM79 °FClear.12 mph89%29.80 "Hg10 mi
2:00 AM79 °FClear.10 mph89%29.80 "Hg10 mi
1:00 AM79 °FClear.12 mph89%29.80 "Hg10 mi
12:00 AM81 °FClear.18 mph84%29.80 "Hg10 mi
11:00 PM
Sat, Jun 25
79 °FClear.14 mph89%29.80 "Hg10 mi
10:00 PM81 °FClear.12 mph89%29.80 "Hg10 mi
9:00 PM81 °FClear.13 mph84%29.80 "Hg10 mi
8:00 PM82 °FClear.10 mph79%29.77 "Hg10 mi
7:00 PM84 °FClear.12 mph74%29.77 "Hg10 mi
Weather by CustomWeather, © 2016

See weather overviewHow to use our weather pages